Location: El Centro
(32.7920°N, 115.5620°W)
Time: 10:57:57
(UTC-07:00)

Amateur Radio Satellites - All Passes

Search period start: 20 October 2014 10:27
Search period end: 21 October 2014 10:27
Location: El Centro, 32.7920°N, 115.5620°W

Satellite Date Start Highest point End Downlink Frequencies (MHz)
Time Altitude Azimuth
Oscar 11 20 Oct 10:34:45 10:39:03 73° 284° (WNW) 10:43:19 145.825 FM, Beacon 2401.500 USB
MaSat-1 20 Oct 10:41:51 10:44:26 74° 69° (ENE) 10:46:48 437.345 MHz
RS-15 20 Oct 11:04:29 11:10:24 16° 260° (W) 11:16:28 29.354 - 29.394 USB, Beacon 29.352 USB
ZACube-1 20 Oct 11:09:59 11:14:15 71° 284° (WNW) 11:18:25 437.345 MHz
UKube-1 20 Oct 11:25:53 11:28:46 17° 292° (WNW) 11:31:38 145.840 MHz, 145.915 MHz
HO-68 20 Oct 11:35:49 11:39:53 16° 301° (WNW) 11:43:57 435.675 MHz FM
PANSAT 20 Oct 11:43:10 11:46:48 43° 183° (S) 11:50:27 not established
FUNcube-1 20 Oct 11:56:56 12:00:01 20° 290° (WNW) 12:03:04 145.950 - 145.970 MHz USB
Oscar 19 20 Oct 12:13:23 12:15:33 13° 64° (ENE) 12:17:42 437.125 CW, 437.150 USB
KITSAT 1 20 Oct 12:19:48 12:27:30 51° 110° (ESE) 12:35:12 435.175 FM
SO-50 20 Oct 12:38:51 12:41:13 14° 108° (ESE) 12:43:38 436.795 FM
Oscar 16 20 Oct 12:55:22 13:00:03 36° 71° (ENE) 13:04:45 437.025 USB, Beacon 2401.1428
Oscar 10/S400 20 Oct 13:07:14 13:28:35 46° 154° (SSE) 13:48:49 145.825 - 145.975 CW/USB, Beacon 145.810 USB
Uribyol 2 20 Oct 13:07:22 13:11:00 19° 67° (ENE) 13:14:38 436.500 FM
ITAMSAT 1 20 Oct 13:12:02 13:15:45 20° 67° (ENE) 13:19:28 435.822 SSB
ISS 20 Oct 13:19:38 13:22:43 36° 131° (SE) 13:25:48 145.800 FM
PANSAT 20 Oct 13:23:24 13:26:38 26° 195° (SSW) 13:29:52 not established
AO-Echo 20 Oct 13:29:38 13:33:59 36° 71° (ENE) 13:38:28 ?
JAS-1B 20 Oct 13:35:24 13:41:47 69° 75° (ENE) 13:47:30 435.800 - 435.900 CW/SSB
Sapphire 20 Oct 13:44:41 13:49:25 30° 57° (ENE) 13:54:07 437.095 MHz 1200 baud AX-25 AFSK
Oscar 19 20 Oct 13:49:10 13:54:17 65° 259° (WSW) 13:59:25 437.125 CW, 437.150 USB
AO-27 20 Oct 13:54:45 13:59:48 56° 74° (ENE) 14:04:54 436.795 MHz FM
PCSat 20 Oct 14:07:25 14:12:42 51° 62° (ENE) 14:17:57 145.825 MHz
KITSAT 1 20 Oct 14:16:01 14:23:04 32° 307° (NW) 14:30:10 435.175 FM
SO-50 20 Oct 14:17:03 14:21:19 44° 302° (WNW) 14:25:42 436.795 FM
UOSAT-12 20 Oct 14:28:00 14:31:02 18° 109° (ESE) 14:34:07 437.025 FM, 437.400 FM
AO-7 20 Oct 14:34:42 14:40:13 20° 58° (ENE) 14:45:43 29.400 - 29.500 MHz
Oscar 16 20 Oct 14:35:33 14:39:25 21° 265° (W) 14:43:19 437.025 USB, Beacon 2401.1428
Gurwin Techsat 1B 20 Oct 14:41:15 14:46:32 79° 76° (ENE) 14:51:52 435.225 FM
Uribyol 2 20 Oct 14:45:12 14:50:06 42° 261° (W) 14:55:03 436.500 FM
ITAMSAT 1 20 Oct 14:50:03 14:54:54 40° 261° (W) 14:59:48 435.822 SSB
TMSAT-1 20 Oct 14:55:38 15:00:55 80° 76° (ENE) 15:06:14 436.925 FM
ISS 20 Oct 14:57:04 14:59:30 19° 326° (NW) 15:01:56 145.800 FM
AO-Echo 20 Oct 15:09:32 15:12:50 19° 266° (W) 15:16:13 ?
Uosat F 20 Oct 15:12:15 15:14:56 15° 65° (ENE) 15:17:37 435.120 FM
Sapphire 20 Oct 15:28:03 15:32:44 30° 252° (WSW) 15:37:25 437.095 MHz 1200 baud AX-25 AFSK
JAS-1B 20 Oct 15:30:36 15:32:43 12° 265° (W) 15:34:46 435.800 - 435.900 CW/SSB
AO-27 20 Oct 15:37:04 15:39:35 14° 267° (W) 15:42:08 436.795 MHz FM
PCSat 20 Oct 15:52:19 15:55:37 17° 256° (WSW) 15:58:55 145.825 MHz
UOSAT-12 20 Oct 16:06:30 16:10:49 39° 303° (WNW) 16:15:14 437.025 FM, 437.400 FM
AO-7 20 Oct 16:23:47 16:32:03 79° 254° (WSW) 16:40:22 29.400 - 29.500 MHz
Saudisat 1A 20 Oct 16:37:04 16:38:31 11° 48° (NE) 16:39:58 436.775 MHz
OPAL 20 Oct 16:41:41 16:43:32 12° 95° (E) 16:45:23 ?
Uosat F 20 Oct 16:48:20 16:53:12 53° 259° (W) 16:58:08 435.120 FM
JAS-2 20 Oct 16:57:15 17:02:22 38° 69° (ENE) 17:08:04 435.800 - 435.900 CW/SSB, 435.910 FM
Hamsat 20 Oct 17:50:28 17:54:43 86° 78° (ENE) 17:58:57 145.90 MHz
Saudisat 1A 20 Oct 18:14:08 18:18:32 69° 244° (WSW) 18:22:54 436.775 MHz
OPAL 20 Oct 18:17:51 18:22:43 58° 288° (WNW) 18:27:33 ?
STRAND 1 20 Oct 18:18:09 18:20:23 13° 93° (E) 18:22:36 ?
AO-40 20 Oct 18:22:28 22:16:43 46° 189° (S) 04:07:56 Beacon 2401.320
AO-7 20 Oct 18:23:54 18:25:48 11° 269° (W) 18:27:41 29.400 - 29.500 MHz
JAS-2 20 Oct 18:43:11 18:47:36 24° 267° (W) 18:52:25 435.800 - 435.900 CW/SSB, 435.910 FM
SO-67 20 Oct 19:07:45 19:11:10 88° 76° (ENE) 19:14:37 435.3500 MHz FM
STRAND 1 20 Oct 19:54:48 19:59:52 58° 286° (WNW) 20:04:53 ?
HO-68 20 Oct 20:09:45 20:16:14 39° 67° (ENE) 20:22:45 435.675 MHz FM
KITSAT 1 20 Oct 20:20:30 20:23:35 12° 39° (NE) 20:26:39 435.175 FM
UKube-1 20 Oct 20:41:07 20:43:56 17° 68° (ENE) 20:46:46 145.840 MHz, 145.915 MHz
RS-15 20 Oct 20:58:21 21:05:41 21° 102° (ESE) 21:12:54 29.354 - 29.394 USB, Beacon 29.352 USB
FUNcube-1 20 Oct 21:13:19 21:15:50 15° 68° (ENE) 21:18:20 145.950 - 145.970 MHz USB
Oscar 11 20 Oct 21:25:13 21:29:24 48° 75° (ENE) 21:33:34 145.825 FM, Beacon 2401.500 USB
ISS 20 Oct 21:28:07 21:31:26 67° 43° (NE) 21:34:44 145.800 FM
HO-68 20 Oct 21:57:36 22:03:52 33° 262° (W) 22:10:12 435.675 MHz FM
ZACube-1 20 Oct 22:01:26 22:05:55 53° 75° (ENE) 22:10:23 437.345 MHz
KITSAT 1 20 Oct 22:12:46 22:20:45 60° 60° (ENE) 22:28:40 435.175 FM
UKube-1 20 Oct 22:15:55 22:19:49 33° 262° (W) 22:23:46 145.840 MHz, 145.915 MHz
FUNcube-1 20 Oct 22:47:23 22:51:47 44° 261° (W) 22:56:11 145.950 - 145.970 MHz USB
SO-50 20 Oct 22:52:29 22:57:12 48° 58° (ENE) 23:01:54 436.795 FM
Oscar 11 20 Oct 23:04:37 23:05:46 11° 267° (W) 23:06:55 145.825 FM, Beacon 2401.500 USB
RS-15 20 Oct 23:05:36 23:16:42 81° 298° (WNW) 23:27:40 29.354 - 29.394 USB, Beacon 29.352 USB
ZACube-1 20 Oct 23:40:58 23:42:31 12° 268° (W) 23:44:05 437.345 MHz
KITSAT 1 21 Oct 00:09:22 00:15:30 25° 256° (WSW) 00:21:38 435.175 FM
MaSat-1 21 Oct 00:14:22 00:18:44 64° 110° (ESE) 00:22:46 437.345 MHz
SO-50 21 Oct 00:34:26 00:37:21 16° 252° (WSW) 00:40:15 436.795 FM
UOSAT-12 21 Oct 00:40:03 00:44:39 51° 59° (ENE) 00:49:08 437.025 FM, 437.400 FM
Oscar 16 21 Oct 01:12:27 01:15:53 18° 95° (E) 01:19:19 437.025 USB, Beacon 2401.1428
JAS-1B 21 Oct 01:23:06 01:28:39 26° 98° (E) 01:34:56 435.800 - 435.900 CW/SSB
RS-15 21 Oct 01:23:10 01:30:55 21° 322° (NW) 01:38:44 29.354 - 29.394 USB, Beacon 29.352 USB
AO-Echo 21 Oct 01:41:50 01:45:30 19° 94° (E) 01:49:09 ?
Oscar 19 21 Oct 02:05:17 02:10:22 65° 102° (ESE) 02:15:26 437.125 CW, 437.150 USB
AO-27 21 Oct 02:12:46 02:17:17 29° 97° (E) 02:21:45 436.795 MHz FM
UOSAT-12 21 Oct 02:22:04 02:24:17 13° 253° (WSW) 02:26:29 437.025 FM, 437.400 FM
Oscar 10/S400 21 Oct 02:31:12 03:21:16 15° 253° (WSW) 04:44:36 145.825 - 145.975 CW/USB, Beacon 145.810 USB
Oscar 16 21 Oct 02:50:34 02:55:21 41° 288° (WNW) 03:00:07 437.025 USB, Beacon 2401.1428
Uribyol 2 21 Oct 03:02:09 03:07:23 82° 284° (WNW) 03:12:34 436.500 FM
Gurwin Techsat 1B 21 Oct 03:02:12 03:07:18 46° 100° (E) 03:12:22 435.225 FM
PCSat 21 Oct 03:05:12 03:07:03 12° 103° (ESE) 03:08:55 145.825 MHz
ITAMSAT 1 21 Oct 03:07:05 03:12:19 78° 284° (WNW) 03:17:30 435.822 SSB
JAS-1B 21 Oct 03:12:54 03:19:13 49° 288° (WNW) 03:26:42 435.800 - 435.900 CW/SSB
TMSAT-1 21 Oct 03:16:13 03:21:19 46° 99° (E) 03:26:22 436.925 FM
AO-Echo 21 Oct 03:19:21 03:24:21 44° 287° (WNW) 03:29:21 ?
Oscar 19 21 Oct 03:47:08 03:49:06 12° 296° (WNW) 03:51:03 437.125 CW, 437.150 USB
OPAL 21 Oct 03:51:58 03:54:56 16° 64° (ENE) 03:57:53 ?
AO-27 21 Oct 03:52:17 03:56:38 27° 291° (WNW) 04:00:59 436.795 MHz FM
Sapphire 21 Oct 04:21:25 04:26:45 66° 112° (ESE) 04:32:08 437.095 MHz 1200 baud AX-25 AFSK
AO-7 21 Oct 04:30:33 04:38:31 48° 102° (ESE) 04:46:27 29.400 - 29.500 MHz
Gurwin Techsat 1B 21 Oct 04:43:19 04:46:51 18° 294° (WNW) 04:50:23 435.225 FM
PCSat 21 Oct 04:44:25 04:49:47 69° 296° (WNW) 04:55:12 145.825 MHz
TMSAT-1 21 Oct 04:57:17 05:00:49 18° 293° (WNW) 05:04:21 436.925 FM
Uosat F 21 Oct 05:00:22 05:05:25 69° 102° (ESE) 05:10:25 435.120 FM
OPAL 21 Oct 05:28:16 05:33:19 54° 257° (WSW) 05:38:22 ?
STRAND 1 21 Oct 05:30:30 05:32:39 13° 64° (ENE) 05:34:48 ?
Hamsat 21 Oct 05:41:18 05:44:27 21° 96° (E) 05:47:37 145.90 MHz
JAS-2 21 Oct 05:54:15 06:01:56 60° 100° (E) 06:09:36 435.800 - 435.900 CW/SSB, 435.910 FM
RS-15 21 Oct 06:01:20 06:09:10 21° 37° (NE) 06:17:09 29.354 - 29.394 USB, Beacon 29.352 USB
Sapphire 21 Oct 06:07:32 06:10:38 15° 309° (NW) 06:13:45 437.095 MHz 1200 baud AX-25 AFSK
AO-7 21 Oct 06:23:49 06:30:56 33° 297° (WNW) 06:38:05 29.400 - 29.500 MHz
Uosat F 21 Oct 06:41:56 06:43:33 12° 296° (WNW) 06:45:10 435.120 FM
STRAND 1 21 Oct 07:06:10 07:11:14 64° 258° (WSW) 07:16:20 ?
Hamsat 21 Oct 07:16:55 07:20:19 24° 288° (WNW) 07:23:43 145.90 MHz
JAS-2 21 Oct 07:40:17 07:46:21 26° 295° (WNW) 07:52:30 435.800 - 435.900 CW/SSB, 435.910 FM
PANSAT 21 Oct 07:59:23 08:01:46 16° 159° (SSE) 08:04:08 not established
SO-67 21 Oct 08:08:17 08:11:31 38° 285° (WNW) 08:14:43 435.3500 MHz FM
RS-15 21 Oct 08:12:19 08:23:36 77° 61° (ENE) 08:35:23 29.354 - 29.394 USB, Beacon 29.352 USB
Saudisat 1A 21 Oct 08:16:02 08:20:25 89° 116° (ESE) 08:24:50 436.775 MHz
Oscar 11 21 Oct 09:19:13 09:21:01 12° 93° (E) 09:22:48 145.825 FM, Beacon 2401.500 USB
HO-68 21 Oct 09:29:03 09:36:11 62° 103° (ESE) 09:43:15 435.675 MHz FM
PANSAT 21 Oct 09:37:57 09:41:28 35° 171° (S) 09:44:59 not established
ZACube-1 21 Oct 09:57:08 09:59:13 13° 93° (E) 10:01:16 437.345 MHz
MaSat-1 21 Oct 10:06:10 10:08:25 26° 63° (ENE) 10:10:32 437.345 MHz
UKube-1 21 Oct 10:08:00 10:12:18 57° 101° (E) 10:16:34 145.840 MHz, 145.915 MHz
